When you browse on this site, cookies collect data to enhance your experience and personalize the content and advertising you see.
Visit our Privacy Policy to learn more. By continuing to use the site, you agree to this use of cookies and data.
  • în România
  • Lista ţărilor
  • Pe 7 zile
  • Temperatura apei
  • Hartă satelitară
  • Meteo pe hartă
  • Widget-uri
  • user-avatar
    Intrare

    Meteo pe oră la Nasirijja

    Astăzi, 26 Martie, Marţi

    Timp Temperatura Precipitaţii Vânt Presiune Umiditate
    00:00 +26°C° 0 mm 5 m/s 752 mmHg 27%
    01:00 +25°C° 0 mm 5 m/s 752 mmHg 29%
    02:00 +25°C° 0 mm 5 m/s 752 mmHg 31%
    03:00 +23°C° 0 mm 4 m/s 752 mmHg 21%
    04:00 +22°C° 0.2 mm 3 m/s 752 mmHg 27%
    05:00 +21°C° 0.2 mm 3 m/s 753 mmHg 32%
    06:00 +21°C° 0.2 mm 3 m/s 753 mmHg 37%
    07:00 +21°C° 0 mm 5 m/s 754 mmHg 38%
    08:00 +21°C° 0 mm 7 m/s 754 mmHg 38%
    09:00 +21°C° 0 mm 9 m/s 755 mmHg 39%
    10:00 +22°C° 0 mm 9 m/s 755 mmHg 34%
    11:00 +23°C° 0 mm 8 m/s 756 mmHg 28%
    12:00 +26°C° 0 mm 7 m/s 756 mmHg 23%
    13:00 +26°C° 0 mm 7 m/s 756 mmHg 21%
    14:00 +26°C° 0 mm 7 m/s 756 mmHg 19%
    15:00 +27°C° 0 mm 7 m/s 756 mmHg 17%
    16:00 +26°C° 0 mm 7 m/s 756 mmHg 18%
    17:00 +26°C° 0 mm 6 m/s 757 mmHg 19%
    18:00 +24°C° 0 mm 6 m/s 757 mmHg 19%
    19:00 +25°C° 0 mm 5 m/s 758 mmHg 21%
    20:00 +23°C° 0 mm 4 m/s 758 mmHg 22%
    21:00 +24°C° 0 mm 3 m/s 759 mmHg 24%
    22:00 +22°C° 0 mm 4 m/s 759 mmHg 28%
    23:00 +21°C° 0 mm 4 m/s 760 mmHg 32%

    Mâine, 27 Martie, Miercuri

    Timp Temperatura Precipitaţii Vânt Presiune Umiditate
    00:00 +21°C° 0 mm 4 m/s 760 mmHg 37%
    01:00 +20°C° 0 mm 4 m/s 760 mmHg 40%
    02:00 +20°C° 0 mm 3 m/s 760 mmHg 43%
    03:00 +19°C° 0 mm 3 m/s 760 mmHg 46%
    04:00 +19°C° 0 mm 3 m/s 761 mmHg 47%
    05:00 +18°C° 0 mm 2 m/s 761 mmHg 49%
    06:00 +18°C° 0 mm 2 m/s 761 mmHg 50%
    07:00 +19°C° 0 mm 2 m/s 762 mmHg 46%
    08:00 +21°C° 0 mm 2 m/s 762 mmHg 41%
    09:00 +23°C° 0 mm 2 m/s 762 mmHg 36%
    10:00 +24°C° 0 mm 2 m/s 762 mmHg 32%
    11:00 +25°C° 0 mm 1 m/s 762 mmHg 28%
    12:00 +25°C° 0 mm 1 m/s 762 mmHg 24%
    13:00 +26°C° 0 mm 1 m/s 762 mmHg 23%
    14:00 +26°C° 0 mm 1 m/s 761 mmHg 21%
    15:00 +27°C° 0 mm 1 m/s 761 mmHg 20%
    16:00 +27°C° 0 mm 1 m/s 761 mmHg 19%
    17:00 +27°C° 0 mm 1 m/s 760 mmHg 19%
    18:00 +25°C° 0 mm 0 m/s 760 mmHg 19%
    19:00 +27°C° 0 mm 2 m/s 760 mmHg 20%
    20:00 +26°C° 0 mm 3 m/s 761 mmHg 21%
    21:00 +26°C° 0 mm 4 m/s 761 mmHg 22%
    22:00 +25°C° 0 mm 3 m/s 761 mmHg 23%
    23:00 +25°C° 0 mm 3 m/s 761 mmHg 24%

    Poimâine, 28 Martie, Joi

    Timp Temperatura Precipitaţii Vânt Presiune Umiditate
    00:00 +24°C° 0 mm 3 m/s 760 mmHg 26%
    01:00 +24°C° 0.1 mm 3 m/s 760 mmHg 28%
    02:00 +22°C° 0.1 mm 4 m/s 761 mmHg 31%
    03:00 +22°C° 0.1 mm 4 m/s 761 mmHg 33%
    04:00 +21°C° 0.1 mm 4 m/s 761 mmHg 34%
    05:00 +21°C° 0.1 mm 4 m/s 761 mmHg 36%
    06:00 +21°C° 0.1 mm 4 m/s 761 mmHg 37%
    07:00 +22°C° 0 mm 4 m/s 762 mmHg 33%
    08:00 +23°C° 0 mm 4 m/s 762 mmHg 30%
    09:00 +26°C° 0 mm 4 m/s 763 mmHg 26%
    10:00 +26°C° 0 mm 3 m/s 763 mmHg 24%
    11:00 +27°C° 0 mm 2 m/s 762 mmHg 22%
    12:00 +27°C° 0 mm 1 m/s 762 mmHg 20%
    13:00 +28°C° 0 mm 2 m/s 762 mmHg 19%
    14:00 +28°C° 0 mm 2 m/s 761 mmHg 18%
    15:00 +28°C° 0 mm 3 m/s 761 mmHg 17%
    16:00 +28°C° 0 mm 3 m/s 761 mmHg 17%
    17:00 +28°C° 0 mm 3 m/s 761 mmHg 17%
    18:00 +28°C° 0 mm 3 m/s 761 mmHg 16%
    19:00 +27°C° 0 mm 3 m/s 761 mmHg 17%
    20:00 +26°C° 0 mm 3 m/s 761 mmHg 19%
    21:00 +26°C° 0 mm 3 m/s 762 mmHg 20%
    22:00 +25°C° 0 mm 3 m/s 762 mmHg 22%
    23:00 +24°C° 0 mm 3 m/s 762 mmHg 23%

    29 Martie, Vineri

    Timp Temperatura Precipitaţii Vânt Presiune Umiditate
    00:00 +24°C° 0 mm 3 m/s 762 mmHg 25%
    01:00 +22°C° 0 mm 3 m/s 761 mmHg 27%
    02:00 +23°C° 0 mm 2 m/s 761 mmHg 30%
    03:00 +21°C° 0 mm 2 m/s 761 mmHg 32%
    04:00 +21°C° 0 mm 2 m/s 761 mmHg 33%
    05:00 +21°C° 0 mm 2 m/s 761 mmHg 33%
    06:00 +20°C° 0 mm 2 m/s 761 mmHg 34%
    07:00 +22°C° 0 mm 3 m/s 762 mmHg 31%
    08:00 +25°C° 0 mm 4 m/s 762 mmHg 29%
    09:00 +26°C° 0 mm 4 m/s 762 mmHg 26%
    10:00 +27°C° 0 mm 4 m/s 762 mmHg 23%
    11:00 +28°C° 0 mm 4 m/s 761 mmHg 21%
    12:00 +29°C° 0 mm 4 m/s 761 mmHg 18%
    13:00 +29°C° 0 mm 4 m/s 760 mmHg 17%
    14:00 +30°C° 0 mm 3 m/s 760 mmHg 16%
    15:00 +30°C° 0 mm 3 m/s 759 mmHg 15%
    16:00 +30°C° 0 mm 3 m/s 759 mmHg 15%
    17:00 +30°C° 0 mm 3 m/s 759 mmHg 15%
    18:00 +30°C° 0 mm 2 m/s 758 mmHg 15%
    19:00 +29°C° 0 mm 3 m/s 759 mmHg 16%
    20:00 +29°C° 0 mm 3 m/s 759 mmHg 17%
    21:00 +28°C° 0 mm 4 m/s 759 mmHg 18%
    22:00 +27°C° 0 mm 5 m/s 759 mmHg 19%
    23:00 +27°C° 0 mm 6 m/s 758 mmHg 20%

    30 Martie, Sâmbătă

    Timp Temperatura Precipitaţii Vânt Presiune Umiditate
    00:00 +26°C° 0 mm 7 m/s 758 mmHg 21%
    01:00 +24°C° 0 mm 6 m/s 758 mmHg 23%
    02:00 +25°C° 0 mm 5 m/s 758 mmHg 25%
    03:00 +23°C° 0 mm 5 m/s 757 mmHg 26%
    04:00 +22°C° 0 mm 5 m/s 758 mmHg 26%
    05:00 +22°C° 0 mm 6 m/s 758 mmHg 27%
    06:00 +22°C° 0 mm 6 m/s 758 mmHg 27%
    07:00 +23°C° 0.2 mm 7 m/s 758 mmHg 26%
    08:00 +24°C° 0.2 mm 8 m/s 758 mmHg 25%
    09:00 +26°C° 0.2 mm 9 m/s 758 mmHg 24%
    10:00 +27°C° 0.2 mm 9 m/s 758 mmHg 24%
    11:00 +29°C° 0.2 mm 10 m/s 757 mmHg 23%
    12:00 +31°C° 0.2 mm 10 m/s 757 mmHg 22%
    13:00 +32°C° 0 mm 10 m/s 756 mmHg 21%
    14:00 +32°C° 0 mm 9 m/s 755 mmHg 19%
    15:00 +33°C° 0 mm 9 m/s 754 mmHg 18%
    16:00 +33°C° 0 mm 10 m/s 754 mmHg 18%
    17:00 +32°C° 0 mm 10 m/s 754 mmHg 18%
    18:00 +32°C° 0 mm 11 m/s 753 mmHg 18%
    19:00 +31°C° 0 mm 11 m/s 753 mmHg 21%
    20:00 +29°C° 0 mm 12 m/s 754 mmHg 23%
    21:00 +27°C° 0 mm 12 m/s 754 mmHg 25%
    22:00 +27°C° 0.3 mm 12 m/s 754 mmHg 30%
    23:00 +26°C° 0.3 mm 11 m/s 753 mmHg 35%

    31 Martie, Duminică

    Timp Temperatura Precipitaţii Vânt Presiune Umiditate
    00:00 +26°C° 0.3 mm 11 m/s 753 mmHg 39%
    01:00 +26°C° 0.1 mm 10 m/s 753 mmHg 41%
    02:00 +26°C° 0.1 mm 8 m/s 753 mmHg 43%
    03:00 +24°C° 0.1 mm 7 m/s 753 mmHg 46%
    04:00 +24°C° 0.2 mm 8 m/s 753 mmHg 48%
    05:00 +23°C° 0.2 mm 9 m/s 753 mmHg 50%
    06:00 +23°C° 0.2 mm 10 m/s 753 mmHg 53%
    07:00 +24°C° 0.1 mm 11 m/s 753 mmHg 47%
    08:00 +26°C° 0.1 mm 12 m/s 754 mmHg 42%
    09:00 +27°C° 0.1 mm 13 m/s 754 mmHg 36%
    10:00 +29°C° 0.1 mm 12 m/s 754 mmHg 33%
    11:00 +32°C° 0.1 mm 11 m/s 753 mmHg 30%
    12:00 +33°C° 0.1 mm 11 m/s 753 mmHg 26%
    13:00 +34°C° 0 mm 9 m/s 753 mmHg 25%
    14:00 +34°C° 0 mm 8 m/s 752 mmHg 24%
    15:00 +35°C° 0 mm 6 m/s 751 mmHg 23%
    16:00 +34°C° 0.1 mm 6 m/s 752 mmHg 24%
    17:00 +33°C° 0.1 mm 5 m/s 752 mmHg 25%
    18:00 +33°C° 0.1 mm 5 m/s 752 mmHg 26%
    19:00 +32°C° 0.1 mm 6 m/s 752 mmHg 28%
    20:00 +30°C° 0.1 mm 6 m/s 752 mmHg 30%
    21:00 +29°C° 0.1 mm 7 m/s 752 mmHg 32%
    22:00 +28°C° 0 mm 6 m/s 752 mmHg 35%
    23:00 +27°C° 0 mm 6 m/s 751 mmHg 38%
    Arată mai mult